OpenBCM V2.0.2 (Linux)

Packet Radio Mailbox

IZ3LSV

[San Dona' di P. JN]

 Login: GUEST





  
LU9DCE > KEPS     18.04.18 20:46l 258 Lines 12904 Bytes #999 (0) @ WW
BID : 2666_LU9DCE
Read: GUEST
Subj: SAT TLE OF 18
Path: IZ3LSV<DB0ERF<DB0RES<IR2UBX<IW8PGT<CX2SA<EA2RCF<LU9DCE
Sent: 180418/1601Z 2666@LU9DCE.TOR.BA.ARG.SOAM LinBPQ6.0.16


            __    _  _  ___  ____   ___  ____    ____  ____  ____
           (  )  / )( \/ _ \(    \ / __)(  __)  (  _ \(  _ \/ ___)
           / (_/\) \/ (\__  )) D (( (__  ) _)    ) _ ( ) _ (\___ \
           \____/\____/(___/(____/ \___)(____)  (____/(____/(____/
               ESTACION DE PACKET RADIO - BUENOS AIRES (GF05OM)
                   BOLETINES INFORMATIVOS PROGRAMADOS (BIP)
                    LU9DCE@GMX.COM - RF 147070 @ 1200 BAUD
                           telnet lu9dce.dynu.com
             BBS port 6300 / NODE port 3694 / DXCLUSTER port 9000

+------------------------------------------------------------------------------+
OSCAR 7
1 07530U 74089B   18107.91276994 -.00000046  00000-0 -10990-4 0  9992
2 07530 101.6812  76.1515 0012517  91.5676 281.5682 12.53632082987043
OSCAR 11 (UoSAT 2)
1 14781U 84021B   18107.68021061 +.00000086 +00000-0 +16760-4 0  9995
2 14781 097.6563 146.4540 0006985 283.9195 076.1242 14.82995466814478
OSCAR 19 (LUSAT)
1 20442U 90005G   18107.88052583  .00000002  00000-0  16904-4 0  9998
2 20442  98.6061  46.7574 0011268 333.7750  26.2862 14.32892343475251
KITSAT B
1 22825U 93061C   18107.90807810 -.00000003  00000-0  16682-4 0  9999
2 22825  98.8576  82.9491 0008769 155.6771 204.4825 14.30027249280950
POSAT 1
1 22826U 93061D   18107.93885317 -.00000010  00000-0  13793-4 0  9999
2 22826  98.8517  83.0257 0009468 146.2227 213.9560 14.30358409281145
RADIO ROSTO
1 23439U 94085A   18107.92188803 -.00000062 +00000-0 -56033-3 0  9993
2 23439 064.8154 086.2965 0159194 193.0238 196.0866 11.27566998959779
JAS 2
1 24278U 96046B   18107.81599283 -.00000024  00000-0  14925-4 0  9992
2 24278  98.5226 314.8738 0349287 267.5714  88.5403 13.53082971 70077
TECHSAT 1B
1 25397U 98043D   18108.08097166 -.00000011  00000-0  14117-4 0  9996
2 25397  98.6454  49.5295 0001430 145.2349 214.8924 14.23643524 27175
ISS (ZARYA)
1 25544U 98067A   18108.61138356 -.01047118  00000-0 -17453-1 0  9996
2 25544  51.6379 315.7043 0003095 350.0850 115.7619 15.54002313109255
PCSAT
1 26931U 01043C   18108.22692484 -.00000022  00000-0  23319-4 0  9991
2 26931  67.0532  24.1251 0007047 281.9769  78.0542 14.30501070863971
SAUDISAT 1C
1 27607U 02058C   18107.88833050 -.00000006 +00000-0 +19963-4 0  9998
2 27607 064.5544 274.3454 0058346 342.1903 017.7153 14.75439533823932
CUTE-1
1 27844U 03031E   18108.01355685  .00000045  00000-0  39881-4 0  9995
2 27844  98.6886 117.5532 0009782 178.8083 181.3120 14.22106246767641
CUBESAT XI 4
1 27848U 03031J   18107.95614916  .00000030  00000-0  33592-4 0  9993
2 27848  98.6974 117.8742 0009466 189.1530 170.9477 14.21711090767502
MOZHAYETS 4
1 27939U 03042A   18108.55121709  .00000129  00000-0  31755-4 0  9994
2 27939  97.9804 249.2583 0012421 343.7529  84.2635 14.66675466778073
CUBESAT XI 5
1 28895U 05043F   18107.90702428  .00000150  00000-0  37750-4 0  9995
2 28895  97.9004 261.8333 0015416 258.8552 101.0918 14.63531560665057
CUTE-1.7+APD II
1 32785U 08021C   18108.47243671  .00000209  00000-0  28290-4 0  9994
2 32785  97.5502 123.4937 0011826 232.2372 127.7775 14.88096103540299
DELFI C3
1 32789U 08021G   18108.38013389  .00001520  00000-0  10854-3 0  9992
2 32789  97.5178 164.6915 0013707 137.6465 222.5823 15.05913982542783
SEEDS
1 32791U 08021J   18108.52402602  .00000397  00000-0  45994-4 0  9996
2 32791  97.5403 128.7645 0012536 211.2587 148.7888 14.90516206540623
YUBELEINY
1 32953U 08025A   18108.40035425  .00000033  00000-0  16395-3 0  9991
2 32953  82.5055  49.8549 0019118 344.2673  15.7810 12.43082893449343
PRISM (HITOMI)
1 33493U 09002B   18108.51363160  .00000108  00000-0  15251-4 0  9993
2 33493  98.1370   8.2987 0015574 148.5412 211.6744 14.96148726501428
KKS-1 (KISEKI)
1 33499U 09002H   18107.88496553 +.00000106 +00000-0 +23755-4 0  9997
2 33499 098.3542 287.6993 0010347 120.9234 239.2993 14.75315011495868
SWISSCUBE
1 35932U 09051B   18108.38030255  .00000138  00000-0  42288-4 0  9991
2 35932  98.5363 258.1324 0008319  41.7810 318.4021 14.56143765454739
BEESAT
1 35933U 09051C   18107.93084863 +.00000113 +00000-0 +36559-4 0  9993
2 35933 098.5402 259.1815 0006783 056.7272 303.4574 14.56249416454693
ITUPSAT 1
1 35935U 09051E   18107.88286177 +.00000101 +00000-0 +34243-4 0  9996
2 35935 098.5514 259.3862 0008985 050.1921 310.0065 14.55428279454524
XIWANG-1 (HOPE-1)
1 36122U 09072B   18108.50057995 -.00000072  00000-0 -78586-4 0  9999
2 36122 100.0794 125.9191 0006828 248.2256 111.8131 13.16344200400798
TISAT 1
1 36799U 10035E   18107.90964997  .00000503  00000-0  57246-4 0  9999
2 36799  98.0964 242.5633 0013346  51.3077 308.9332 14.90754974421170
JUGNU
1 37839U 11058B   18107.94606632 +.00000330 +00000-0 +34131-4 0  9990
2 37839 019.9621 042.5368 0018716 302.7341 107.3058 14.12616110336730
SRMSAT
1 37841U 11058D   18107.33018598  .00000302  00000-0  20562-4 0  9996
2 37841  19.9718  94.2181 0011883 181.1660 317.7094 14.10603519336271
M-CUBED/EXP-1 PRIME
1 37855U 11061F   18107.94881205 +.00000894 +00000-0 +53989-4 0  9990
2 37855 101.7230 139.6641 0176845 260.4628 097.6560 15.04270684352126
HORYU 2
1 38340U 12025D   18107.65376464  .00000206  00000-0  38382-4 0  9992
2 38340  98.3705 127.2843 0012547  48.6643 311.5642 14.75529937318184
STRAND 1
1 39090U 13009E   18108.14617310  .00000028  00000-0  25211-4 0  9990
2 39090  98.5279 315.2936 0010307 112.7716 247.4559 14.35019755269214
SOMP
1 39134U 13015E   18107.89689127 +.00001371 +00000-0 +74514-4 0  9994
2 39134 064.8638 321.9158 0019841 218.8566 141.1136 15.19000673275367
BEESAT 3
1 39135U 13015F   18108.08419925  .00000820  00000-0  51644-4 0  9991
2 39135  64.8695 333.8916 0026521 243.3472 116.4938 15.16545921275538
BEESAT 2
1 39136U 13015G   18107.90096783 +.00000944 +00000-0 +58728-4 0  9992
2 39136 064.8703 337.1055 0026671 242.1036 117.7388 15.16019946275063
CUBEBUG 1
1 39153U 13018D   18108.42314256  .00000229  00000-0  36891-4 0  9993
2 39153  97.9765 204.0273 0018059 136.6844 223.5791 14.80372795268752
ZACUBE
1 39417U 13066B   18108.51800929  .00000230  00000-0  35433-4 0  9999
2 39417  97.5932 140.3240 0058816 352.2084   7.8210 14.80910274237968
TRITON 1
1 39427U 13066M   18107.96397942 +.00000218 +00000-0 +42368-4 0  9995
2 39427 097.6403 107.8863 0115673 092.2910 269.1545 14.67637764235558
GOMX 1
1 39430U 13066Q   18108.43520990  .00000180  00000-0  41444-4 0  9995
2 39430  97.6933  89.6320 0152056 158.6386 202.1255 14.59053716234447
HUMSAT D
1 39433U 13066T   18108.14382578  .00000260  00000-0  31072-4 0  9999
2 39433  97.6101 166.6050 0029368 282.9585  76.8355 14.91808547239475
50 SAT
1 39436U 13066W   18108.33766415  .00215747  00000-0  13812-2 0  9997
2 39436  97.7125 240.6083 0004544 292.6568  67.4215 15.75673149243929
CUBEBUG 2
1 39440U 13066AA  18108.06319312  .00000237  00000-0  40037-4 0  9999
2 39440  97.6051 126.8598 0081328  31.8204 328.7883 14.75644663237051
FUNCUBE 1
1 39444U 13066AE  18107.86982406  .00000273  00000-0  40161-4 0  9998
2 39444  97.5943 141.1588 0057877 349.9486  10.0565 14.81680672236728
UWE-3
1 39446U 13066AG  18108.52729340  .00000234  00000-0  37881-4 0  9992
2 39446  97.5978 133.4367 0070485  11.6780 348.6046 14.78178758236308
SPROUT
1 39770U 14029E   18108.56293573  .00000725  00000-0  87503-4 0  9991
2 39770  97.8728 210.1209 0010365  52.1582 308.0540 14.86769515211503
UNISAT 6
1 40012U 14033C   18107.85785361 +.00000221 +00000-0 +40498-4 0  9992
2 40012 097.8171 346.3364 0059415 034.8164 325.6910 14.73794042205814
DUCHIFAT 1
1 40021U 14033M   18107.76469191  .00000436  00000-0  50748-4 0  9999
2 40021  97.9172  26.3737 0013728  23.8580 336.3271 14.90257814207958
QB50P1
1 40025U 14033R   18108.46152821  .00000309  00000-0  39105-4 0  9993
2 40025  97.9071  23.9777 0013237  27.6581 332.5337 14.88679177207908
CHUBUSAT 1
1 40300U 14070C   18108.43589182  .00000869  00000-0  41472-4 0  9992
2 40300  97.3673 187.4029 0021897 109.6770 309.9270 15.21487301191195
NUDT-PHONESAT
1 40900U 15049B   18108.11702973  .00001980  00000-0  92163-4 0  9993
2 40900  97.4426 117.0691 0011979 235.1263 124.8847 15.21063658142784
ZDPS 2A
1 40901U 15049C   18108.44997538  .00000912  00000-0  49506-4 0  9990
2 40901  97.4601 115.7319 0012199 242.1900 117.8097 15.16981173142608
ZDPS 2B
1 40902U 15049D   18108.15174045  .00000776  00000-0  42859-4 0  9991
2 40902  97.4497 113.5598 0012288 240.1716 119.8296 15.16777920142548
XW-2A
1 40903U 15049E   18108.47766660  .00001871  00000-0  48551-4 0  9999
2 40903  97.3908 142.7263 0012687 242.4553 117.5405 15.40259192144615
KAITUO 1A
1 40904U 15049F   18108.51326089  .00000362  00000-0  22915-4 0  9992
2 40904  97.4595 113.2140 0012981 243.7678 268.5233 15.14958475142463
OBJECT G
1 40905U 15049G   18108.46626798  .00000397  00000-0  25494-4 0  9990
2 40905  97.4591 111.3422 0014454 234.0753 125.9138 15.13919846142385
XW-2C
1 40906U 15049H   18108.48447917  .00000645  00000-0  37916-4 0  9995
2 40906  97.4606 113.0730 0013662 233.2106 126.7873 15.15110561142459
XW-2D
1 40907U 15049J   18108.44277106  .00000711  00000-0  41284-4 0  9990
2 40907  97.4580 112.7362 0013070 230.7651 129.2422 15.15255543142456
LILACSAT 2
1 40908U 15049K   18108.17949382  .00000349  00000-0  23126-4 0  9995
2 40908  97.4691 111.9134 0014695 233.5874 126.4003 15.13463069142298
XW-2F
1 40910U 15049M   18108.43761651  .00001041  00000-0  56914-4 0  9999
2 40910  97.4584 113.9384 0013842 226.5702 133.4379 15.16407285142392
XW-2B
1 40911U 15049N   18108.45810691  .00000696  00000-0  40552-4 0  9997
2 40911  97.4616 113.2663 0012974 231.3025 128.7048 15.15201404142359
KAITUO 1B
1 40912U 15049P   18107.99081282  .00001350  00000-0  68432-4 0  9997
2 40912  97.4512 116.1721 0013878 216.6834 195.3542 15.18608377142532
